Starlink 3176

operational
NORAD ID: 51106 Int'l Des: 2022-005 Owner: SPXS Country: US Constellation: starlink
LEOCIRCULAR

Über Starlink 3176

Beschreibung wird geladen...

Live-Position

3D-Globus wird geladen...

Nächste Überflüge

Höhenverlauf

Altitude vs Time

uPlot chart will show altitude changes over time

Zweizeiliger Elementsatz

1 51106U 22005C 25350.16295356 .00001445 00000-0 10885-3 0 9993
2 51106 53.2195 304.0886 0001329 83.8748 276.2396 15.08840208216260
Epoch: 16. Dez. 2025 • Age: 31 hours

Aktueller Status

Höhe 554.0 km
Geschwindigkeit 7.58 km/s
Subsatellitenpunkt -40.87°S, 95.31°W
Startdatum 19. Jan. 2022
Alter 3.9 years
Typ internet

Technische Details

Klassifizierung Payload
Masse 297.00 kg
Trockenmasse 275.00 kg
Gesamtmasse 297.00 kg
Länge 0.20 m
Durchmesser 2.80 m
Spannweite 9.00 m
Form Box + pan
Hersteller SPXS
Bus-Typ Starlink
Phasenstatus In Orbit
Besitzer/Staat SPXS/US

Große Konstellationen

Loading constellations...